TimeCDT,TemperatureF,Dew PointF,Humidity,Sea Level PressureIn,VisibilityMPH,Wind Direction,Wind SpeedMPH,Gust SpeedMPH,PrecipitationIn,Events,Conditions,WindDirDegrees,DateUTC
12:53 AM,64.0,55.0,73,29.96,10.0,SE,4.6,-,N/A,,Clear,140,2013-06-19 05:53:00
1:53 AM,64.9,55.0,70,29.94,10.0,SSE,4.6,-,N/A,,Clear,160,2013-06-19 06:53:00
2:53 AM,64.0,54.0,70,29.93,10.0,Calm,Calm,-,N/A,,Clear,0,2013-06-19 07:53:00
3:53 AM,64.0,55.0,73,29.93,10.0,SE,6.9,-,N/A,,Clear,140,2013-06-19 08:53:00
4:53 AM,62.1,55.0,78,29.94,10.0,Calm,Calm,-,N/A,,Clear,0,2013-06-19 09:53:00
5:53 AM,62.1,55.9,80,29.95,10.0,SE,4.6,-,N/A,,Clear,140,2013-06-19 10:53:00
6:53 AM,64.0,57.0,78,29.95,10.0,SE,5.8,-,N/A,,Clear,140,2013-06-19 11:53:00
7:53 AM,68.0,57.9,70,29.94,10.0,SE,9.2,-,N/A,,Clear,140,2013-06-19 12:53:00
8:53 AM,73.0,60.1,64,29.92,-9999.0,North,-9999.0,-,N/A,,Unknown,0,2013-06-19 13:53:00
9:53 AM,75.9,61.0,60,29.91,10.0,SE,12.7,-,N/A,,Clear,140,2013-06-19 14:53:00
10:53 AM,81.0,59.0,47,29.90,10.0,SSE,19.6,-,N/A,,Clear,150,2013-06-19 15:53:00
11:53 AM,84.0,57.9,41,29.89,10.0,SSE,20.7,-,N/A,,Clear,150,2013-06-19 16:53:00
12:53 PM,86.0,61.0,43,29.88,10.0,SSE,18.4,29.9,N/A,,Scattered Clouds,150,2013-06-19 17:53:00
1:53 PM,84.9,63.0,48,29.86,10.0,SSE,17.3,24.2,N/A,,Clear,150,2013-06-19 18:53:00
2:53 PM,84.9,61.0,44,29.84,10.0,South,16.1,-,N/A,,Mostly Cloudy,170,2013-06-19 19:53:00
3:53 PM,84.9,61.0,44,29.83,10.0,SSE,17.3,23.0,N/A,,Clear,160,2013-06-19 20:53:00
4:53 PM,87.1,61.0,41,29.80,10.0,South,17.3,23.0,N/A,,Clear,170,2013-06-19 21:53:00
5:53 PM,90.0,62.1,39,29.78,10.0,South,15.0,25.3,N/A,,Partly Cloudy,170,2013-06-19 22:53:00
6:53 PM,89.1,62.1,40,29.77,10.0,SSE,18.4,23.0,N/A,,Partly Cloudy,150,2013-06-19 23:53:00
7:53 PM,87.1,60.1,40,29.78,10.0,SSE,16.1,-,N/A,,Clear,160,2013-06-20 00:53:00
8:53 PM,84.0,63.0,49,29.77,10.0,SSE,17.3,-,N/A,,Clear,160,2013-06-20 01:53:00
9:53 PM,80.1,63.0,56,29.79,10.0,SSE,13.8,-,N/A,,Clear,150,2013-06-20 02:53:00
10:53 PM,78.1,63.0,60,29.81,10.0,SE,12.7,-,N/A,,Clear,140,2013-06-20 03:53:00
11:53 PM,78.1,62.1,58,29.80,10.0,SSE,20.7,-,N/A,,Partly Cloudy,160,2013-06-20 04:53:00